Regional Weather Roundup
Issued by NWS Wakefield, VA

Home | Current Version | Previous Version | Graphics & Text | Print | Product List | Glossary On
Versions: 1 2 3 4 5 6 7 8 9 10 11 12 13 14 15 16 17 18 19 20 21 22 23 24 25 26 27 28 29 30 31 32 33 34 35 36 37 38 39 40 41 42 43 44 45 46 47 48 49 50
000
ASUS41 KAKQ 270310
RWRAKQ

REGIONAL WEATHER ROUNDUP
NATIONAL WEATHER SERVICE WAKEFIELD VA
1000 PM EST THU FEB 26 2015

Note: "fair" indicates few or no clouds below 12,000 feet with no
significant weather and/or obstructions to visibility. * = Denotes
station may not report precipitation (e.g., rain,snow,etc.),
thunder or fog.

VAZ042-051-052>054-056-270400-
NORTHERN VIRGINIA

CITY           SKY/WX    TMP DP  RH WIND       PRES   REMARKS
WASH NATIONAL  CLOUDY    33  22  63 CALM      30.13R
DULLES         CLOUDY    29  23  78 CALM      30.11R
FORT BELVOIR   NOT AVBL
QUANTICO       MOCLDY    31  25  78 S3        30.14R
FREDERICKSBRG* PTCLDY    29  27  92 CALM      30.12R
STAFFORD*      MOCLDY    27  27 100 CALM      30.16R
WARRENTON      CLOUDY    28  28 100 CALM      30.10R
CULPEPER*      CLOUDY    30  27  86 CALM      30.11R
MANASSAS*      CLOUDY    28  27  93 CALM      30.12R
LEESBURG*      CLOUDY    32  28  86 CALM      30.12R
WINCHESTER     MOCLDY    28  21  74 CALM      30.08S
FRONT ROYAL*   CLOUDY    30  27  86 S3        30.07R
LURAY*         CLOUDY    32  28  86 CALM      30.06R
$$

VAZ048-049-060>072-079>083-270400-
CENTRAL AND SOUTH CENTRAL VIRGINIA

CITY           SKY/WX    TMP DP  RH WIND       PRES   REMARKS
RICHMOND       CLEAR     27  24  89 CALM      30.12R FOG
CHESTERFIELD*  MOCLDY    25  12  58 CALM      30.13R VSB 3/4
PETERSBURG*    FOG       26  25  98 CALM      30.13R VSB 1/4
HANOVER        CLEAR     27  24  89 CALM      30.13R FOG
TAPPAHANNOCK*  FOG       27  25  89 CALM      30.13R VSB 1/4
QUINTON*         N/A     27  27  99 CALM      30.13R VSB 1/2
CHARLOTTSVILLE CLOUDY    33  25  72 S3        30.09R
GORDONSVILLE*  CLOUDY    28  26  90 CALM      30.10R
ORANGE*        CLOUDY    30  28  93 CALM      30.11S
LOUISA*        CLOUDY    30  28  93 CALM      30.09R FOG
BUMPASS*       FAIR      27  26  95 CALM      30.11R
FARMVILLE*     FOG       25  25 100 CALM      30.10R VSB 1/2
CREWE*           N/A     26  25  96 CALM      30.11R VSB 1
FORT PICKETT*  MOCLDY    28  27  98 CALM      30.11R VSB 3/4
CHASE CITY*    FAIR      28  28 100 CALM      30.11R
CLARKSVILLE*   MOCLDY    28  27  93 CALM      30.10R VSB 1/2
SOUTH HILL*    CLOUDY    26  25  97 CALM      30.16S VSB 1/4
LAWRENCEVILLE* CLOUDY    27  27 100 CALM      30.11R VSB<1/4
EMPORIA*       CLEAR     30  30 100 CALM      30.15R FOG
$$

VAZ088>098-270400-
SOUTHEAST VIRGINIA

CITY           SKY/WX    TMP DP  RH WIND       PRES   REMARKS
NORFOLK        CLOUDY    31  26  82 N7        30.10R
VIRGINIA BEACH PTCLDY    32  30  92 NE7       30.10R
NORFOLK NAVAL  MOCLDY    33  27  78 N6        30.12R
WEST POINT*      N/A     26  23  89 CALM      30.15R VSB 1/4
SALUDA*          N/A     24  24  96 CALM      30.12R VSB 3/4
NEWPORT NEWS   PTCLDY    31  27  85 N3        30.12R FOG
LANGLEY AFB    NOT AVBL
FORT EUSTIS    NOT AVBL
WILLIAMSBURG*  PTCLDY    32  30  93 CALM      30.13R
HR EXEC AP*    MOCLDY    28  25  86 CALM      30.13S
FRANKLIN*      CLEAR     30  29  96 CALM      30.12R
WAKEFIELD      CLEAR     29  27  92 CALM      30.13R FOG
$$

VAZ020-022-025-037-045-270400-
WEST CENTRAL AND SOUTHWEST VIRGINIA

CITY           SKY/WX    TMP DP  RH WIND       PRES   REMARKS
STAUNTON*      CLOUDY    31  25  80 CALM      30.07R
WAYNESBORO*    CLOUDY    31  26  83 CALM      30.04R
HOT SPRINGS VA CLOUDY    23  16  76 W10       29.93R WCI  12
LYNCHBURG      CLOUDY    31  29  92 CALM      30.09R
DANVILLE       CLOUDY    28  26  92 CALM      30.12R FOG
SOUTH BOSTON*  MOCLDY    29  28  95 CALM      30.12R VSB 3/4
MARTINSVILLE   CLOUDY    33  33 100 CALM      30.13R
ROANOKE        CLOUDY    35  27  72 W6        30.09R
BLACKSBURG     PTCLDY    30  19  65 CALM      30.08R
DUBLIN*        PTCLDY    31  24  75 SW5       30.07R
MARION*        MOCLDY    30  24  79 W5        30.07R
HILLSVILLE*    PTCLDY    29  25  86 NW5       30.03R
RICHLANDS*     CLOUDY    28  23  83 W3        30.05R
WISE*          MOCLDY    28  19  69 NW7       30.08R
ABINGDON*      PTCLDY    31  30  94 W3        30.08R
$$

MDZ021>025-VAZ099-100-270400-
SOUTHERN MARYLAND AND THE DELMARVA PENINSULA

CITY           SKY/WX    TMP DP  RH WIND       PRES   REMARKS
PATUXENT RIVER PTCLDY    21  19  92 CALM      30.13R
BAY BRIDGE APT   N/A     28  21  74 CALM      30.14R
LEONARDTOWN    CLEAR     23  21  93 CALM      30.14R
DOVER          NOT AVBL
GEORGETOWN     CLEAR     21  17  84 CALM      30.13R
EASTON         PTCLDY    26  23  88 CALM      30.17R
CAMBRIDGE      CLEAR     27  23  86 CALM      30.13R
SALISBURY      HAZE      23  18  81 CALM      30.12S VSB 1/4
OCEAN CITY     PTCLDY    18  16  92 NW3       30.13R FOG
WALLOPS ISLAND PTCLDY    27  23  85 N5        30.13R
ACCOMACK*      PTCLDY    30  27  86 N5        30.11R
$$

NCZ012>017-030>032-270400-
NORTH CENTRAL AND EASTERN NORTH CAROLINA

CITY           SKY/WX    TMP DP  RH WIND       PRES   REMARKS
ROANOKE RAPIDS FAIR      30  30 100 CALM      30.12R FOG
RALEIGH        MOCLDY    29  26  89 CALM      30.13R FOG
ELIZABETH CITY NOT AVBL
AHOSKIE*       PTCLDY    31  30  94 CALM      30.13R FOG
EDENTON*       CLOUDY    32  29  90 N5        30.12R
CURRITUCK*     CLOUDY    32  28  84 N9        30.10S
KILL DEVIL HLS CLOUDY    33  30  90 N8G20     30.08R
MANTEO         CLOUDY    32  28  86 N15G24    30.10R WCI  22
CAPE HATTERAS  CLOUDY    34  31  88 N10G25    30.08R
TARBORO*       CLOUDY    33  32  94 CALM      30.14R
GOLDSBORO      NOT AVBL
WASHINGTON     CLOUDY    33  31  94 CALM      30.13R
GREENVILLE     CLOUDY    34  32  93 CALM      30.14R
NEW BERN       CLOUDY    35  31  85 N8        30.13R
WILMINGTON     CLOUDY    37  32  82 N7        30.13R
$$

VAZ048-270400-
ELSEWHERE

CITY           SKY/WX    TMP DP  RH WIND       PRES   REMARKS
HARRISBURG PA  CLOUDY    27  16  63 NW8       30.12R
BALTIMORE      CLOUDY    28  21  75 CALM      30.12R
ANNAPOLIS      CLOUDY    28  24  85 CALM      30.13R
ANDREWS AFB    NOT AVBL
PHILADELPHIA   MOCLDY    29  15  56 CALM      30.14R
HENDERSON NC   FOG       27  26  95 CALM      30.11R VSB 3/4
GREENSBORO     CLOUDY    31  29  92 SW5       30.10R FOG
ROCKY MOUNT    CLOUDY    32  31  96 CALM      30.13R FOG
$$

VAZ100-270400-
MARINE

STATION/POSITION TIME  TEMP    WIND        PRES    WAVE   SWELL
                       AIR SEA DIR/SP/G            HT/PER HT/PER
                 (UTC) (F)     (DEG/KT/KT) (MB)    (FT/S) (FT/S)
BRANDYWINE LGT   0300   28 29  160/  2/  2 1020.4S
CAPE MAY NJ      0300   24 32   20/  2/  2 1019.9R
LEWES DE         0300   26 30  300/  2/  3 1020.3R
15NM E FENWICK I 0300   31 35              1019.3R   9/ 9
OCEAN-CITY-INLET 0300   28 32  340/  2/  3 1019.7R
WACHAPREAGUE VA  0300   28 32  340/  2/  4 1019.7R
THOMAS POINT MD  0300   30 31   80/  3/  3 1021.4R
COVE POINT MD    0300   28     330/  2/  3 1020.1R
SOLOMONS ISLAND  0300      32                N/A
BISHOPS HEAD MD  0300   29 31   50/  4/  4 1019.5F
CAMBRIDGE MD     0300   26 32     CALM     1020.2R
LEWISETTA VA     0300   26 32     CALM     1019.9R
RAPPAHANNOCK LGT 0300           10/  8/  8 1020.2R
STINGRAY PT      0300   30     350/  4/  4   N/A
YORK RVR RNG VA  0300   31     360/  6/  7 1019.2R
YORKTOWN VA      0300   31 32  360/  2/  3 1019.6R
DOMINION TERM VA 0300   31      30/  3/  4 1019.6R
KIPTOPEKE VA     0300      36   50/  3/  5   N/A
CHES BAY BRIDGE  0300   31 32   30/  6/  7 1018.9F
CAPE HENRY VA    0300   30      20/ 11/ 13 1017.8F
CHESAPEAKE LGHT  0200   32      20/ 19/ 20 1019.2R
WILLOUBY STN VA  0300   31      10/  7/  8 1020.0R
S CRANEY ISL VA  0300           10/  5/  6 1019.5R
CAPE HENRY BUOY  0300      35                N/A     7/ 9   2/11
1ST LANDING BUOY 0300   32      40/  8/ 12 1018.9F
OFFSHORE WE BUOY 0300      38                N/A    10/10   8/10
64NM E OF VA BCH 0300   42 59   10/ 25/ 29 1016.5R  13/10  10/10
DUCK PIER NC     0300   33 34   10/ 19/ 21 1017.6R
44100 DUCK FRF   0300      37                N/A    11/10   5/11
44056 DUCK FRF   0300      35                N/A    10/10   3/11
OREGON INLET NC  0300   33 37  350/ 17/ 27 1018.2R
HATTERAS NC      0300   34 40  360/ 21/ 24 1018.5R
CAPE LOOKOUT NC  0200   36     350/ 19/ 20 1017.9R
$$


USA.gov is the U.S. government's official web portal to all federal, state and local government web resources and services.